STARLINK-30200, 57306

Orbit data source: Space-Track

STARLINK-30200, 57306 is a payload satellite owned by SpaceX/Seattle (US) in LEO that was launched on Mon, 10 Jul 2023 UTC via an FALCON 9 launch vehicle from the Air Force Eastern Test Range (AFETR). Payload-class satellites include a variety of spacecraft equipped with specific instruments for various scientific and technological missions. These include communications satellites like Starlink; space stations such as the ISS; scientific satellites like the Hubble; Earth observation satellites from companies like Planet Labs, Umbra, and HawkEye 360; GPS; miniature CubeSats for education and research; and military/defense satellites.

Loading next visibility...
Identifier
57306, 2023-096S
Orbit
LEO
Country
Flag of USUS
Related business
Manufacturer
SpaceX/Seattle
Mission
Partially operational Commercial Communications
Bus & Motor
STARLINK V2M, Unknown motor
Mass
730 kg wet, ~700 kg dry
Launch date (UTC)
2023-07-10 (2 years ago)
Launch vehicle
FALCON 9
Launch site
Air Force Eastern Test Range (AFETR)
Object type
Payload
Rocket body
Debris
Shape & HBR
Box + 2 Pan, 17.7 m
Radar Cross Section
33.884 m², Large (>1 m²)

Expand to show TLE details & history
Last TLE update: 1 day ago

TLE from 1 day ago
0 STARLINK-30200
1 57306U 23096S   25312.83335647  .00202377  00000-0  55065-2 0  9997
2 57306  42.9870 130.2965 0028673 279.7434 111.2469 15.35617592  5857
Epoch: 2025-11-08T20:00Z
TLE epoch observation values (Epoch: 2025-11-08T20:00:01.999Z)
Latitude
20.81038°
Longitude
165.95363°
Altitude
465.649 km
Speed
7.633 km/s
True Right ascension
10h 16m 52s
True Declination
20° 41' 30"
Sunlit
Object was in daylight at epoch
Visualization orbit readout
Latitude
Unknown
Longitude
Unknown
Altitude
Unknown
Speed
Unknown
Apparent Right ascension
Unknown
Apparent Declination
Unknown
Sunlit
N/A
Visualization observer readout
Local Sidereal Time
03:28:28
Azimuth
Unknown
Elevation
Unknown
Doppler factor
Unknown
Orbital elements
Apogee altitude
480.651 km
Perigee altitude
441.431 km
Semi-major axis
6,839.178 km
Eccentricity
0.00287
Inclination
42.987°
RAAN
130.2965°
Arg. of periapsis
279.7434°
True anomaly
111.55274°
Mean anomaly
111.2469°
Eccentric anomaly
111.39986°
Mean motion
3.8374 °/min
Orbital period
93.81 mins
BSTAR
0.0055065
Loading maneuver chart data...
Computing Atmospheric mass density...

Documentation

Showing up to 5 results
|